To NAV CANADA Home Page Login to a new session Search on AWWS site Feedback and Comments Disclaimer Vers la page française équivalente Tips FAQ What's new on the site To the Forecasts and Observations / NOTAM section To "File a Flight Plan" website Publications and other links Update of the User's profile FIC Telephone Numbers My Weather Data Folder Route Weather Data Regional Weather Data Local Weather Data To the Forecasts and Observations / NOTAM section
Request Generated 09/25/2016 at 17:20:00 UTC . Weather information available at that time is displayed.

METAR/TAF

KANGIRSUK/QC    

METAR CYAS 251700Z 31009KT 15SM BKN018 07/03 A3018 RMK SC6 SLP230=
METAR CYAS 251600Z 31008KT 15SM OVC015 07/03 A3019 RMK ST8 SLP232=
METAR CYAS 251500Z 30011G16KT 15SM OVC014 05/02 A3020 RMK ST8 SLP236=

CYAS - No TAF is issued for this station

Your time UTC time
Weather data provided by Environment Canada and NAV CANADA